星链-35237(STARLINK-35237)

导读

STARLINK-35237是美国于2025年9月18日发射的星链卫星,归属SpaceX星链星座网络。星链计划旨在构建全球卫星互联网,为偏远地区、海上、空中等场景提供低延迟高速网络服务。该卫星作为星链星座的新增组网卫星,进一步扩充星座规模,助力全球覆盖能力提升。

基本信息
目录编号:
65645
目录名称:
STARLINK-35237
国际标识:
2025-210Z
轨道中心:
EARTH
卫星名称:
星链-35237
卫星全名:
星链-35237(STARLINK-35237)
卫星状态:
在轨 (已飞行268 天)
发射日期:
2025-09-18 UTC
国别 :
美国 (US)
星等 :
--
轨道信息
数据来源 国际轨道数据 AOE轨道数据
星历时间 2026-06-13T05:36:32+0800
16小时前
查看轨道信息
2026-06-12T05:00:00+0800
1天前
查看轨道信息
半长轴 6853.311km 6853.41km
偏心率 0.0000328 0.0001246
轨道倾角 53.159° 53.156°
近地点辐角 15.737° 64.666°
升交点赤经 225.162° 229.927°
平近点角 344.364° 43.780°
近地点 474.949km 474.419km
远地点 475.399km 476.127km
周期 94.104分钟 94.107分钟
每日圈数 15.302139 15.301808
详细信息
固有亮度:
5
最大亮度:
2.5
卫星平台:
Starlink V1.0
覆盖范围:
全球
运营商:
太空探索技术公司
运营商所在国:
美国
制造商(研发单位):
太空探索技术公司
制造商所在国:
美国
使用方式:
暂无
卫星简介
Starlink 计划是 SpaceX 推出的全球卫星互联网项目,通过发射低轨道卫星,为全球尤其是偏远地区提供高速、低延迟的互联网服务。自 2019 年起,Starlink 已部署数千颗卫星,旨在缩小全球数字鸿沟,推动互联网普及。该项目还为军事、航空等行业提供通信支持,带来广泛经济效益。
2D轨道图
3D轨道图
轨道高度分析图
轨道倾角分析图
轨道综合分析图
查看轨道综合分析图